Location: Bothwell
(42.3833°S, 147.0000°E)
Time: 19:56:23
(UTC+11:00)

First-Move - Pass Details

Date: 03 October 2022
Orbit: 570 x 653 km, 97.7° (Epoch: 25 November)

Event Time Altitude Azimuth Distance (km) Brightness Sun altitude
Exits shadow 03:38:38 35° 112° (ESE) 1,080 ? -31.7°
Drops below altitude 10° 03:42:45 10° 175° (S) 2,101 ? -31.2°
Enters shadow 04:53:12 -37° 3° (N) 8,559 ? -20.3°
Sets 05:20:57 0° 205° (SSW) 3,017 ? -15.5°
